Location: Casilda
(33.0440°S, 61.1680°W)
Time: 11:03:28
(UTC-03:00)

ISS - Pass Details

Date: 17 April 2021
Orbit: 418 x 422 km, 51.6° (Epoch: 11 April)

Event Time Altitude Azimuth Distance (km) Brightness Sun altitude
Rises 20:51:03 0° 289° (WNW) 2,367 1.1 -28.2°
Reaches altitude 10° 20:53:23 10° 275° (W) 1,509 0.0 -28.7°
Enters shadow 20:54:45 19° 256° (WSW) 1,097 -0.9 -29.0°
